If you wish to contribute or participate in the discussions about articles you are invited to join SKYbrary as a registered user

 Actions

Ilhéus Jorge Amado Airport

From SKYbrary Wiki

SBIL
Airport
ICAO: SBIL – IATA: IOS
Summary
Name Ilhéus Jorge Amado Airport
Region South America and Caribbean
Territory Brazil BR.gif
Location Ilhéus, Bahia
Serving Ilhéus
Elevation 3.962 m
13 ft3.962 m
Coordinates 14° 48' 54.00" S, 39° 1' 59.99" W
Runways
Designator Length Width Surface ROPS
11/29 1577 m5,173.885 ft
45 m147.638 ft
ASP yes/yes


METAR
Observation SBIL 171500Z 16007KT 9999 VCSH FEW025 BKN030 26/21 Q1017
Station Ilheus Aeroporto
Date/Time 17 September 2019 15:00:00
Wind direction 160°
Wind speed 07 kts
Lowest cloud amount few clouds
Temperature 26°C
Dew point 21°C
Humidity 74%
QNH 1017 hPa
Weather condition in vicinity: showers

Ilhéus/Bahia-Jorge Amado Airport, is the airport serving Ilhéus, Brazil.

Climatology

Tropical rainforest climate (Köppen climate classification Af)

Maps

Terrain

Loading map...

Airport Layout

Loading map...


Accidents & Serious Incidents at or in vicinity of SBIL

None on SKYbrary